Regional Weather Roundup
Issued by NWS Wakefield, VA

Home | Current Version | Previous Version | Graphics & Text | Print | Product List | Glossary On
Versions: 1 2 3 4 5 6 7 8 9 10 11 12 13 14 15 16 17 18 19 20 21 22 23 24 25 26 27 28
000
ASUS41 KAKQ 281315
RWRAKQ

REGIONAL WEATHER ROUNDUP
NATIONAL WEATHER SERVICE WAKEFIELD VA
900 AM EDT THU JUL 28 2016

Note: "fair" indicates few or no clouds below 12,000 feet with no
significant weather and/or obstructions to visibility. * = Denotes
station may not report precipitation (e.g., rain,snow,etc.),
thunder or fog.

VAZ042-051-052>054-056-281400-
NORTHERN VIRGINIA

CITY           SKY/WX    TMP DP  RH WIND       PRES   REMARKS
WASH NATIONAL  PTSUNNY   86  75  69 S3        29.91S HX  95
DULLES         PTSUNNY   84  70  62 N3        29.92F
FORT BELVOIR   FAIR      84  74  73 VRB2      29.90F
QUANTICO       PTSUNNY   82  74  76 SE3       29.91F
FREDERICKSBRG* FAIR      80  75  85 CALM      29.91S
STAFFORD*      FAIR      81  73  76 CALM      29.95S
WARRENTON      FAIR      81  70  70 CALM      29.92S
CULPEPER*      FAIR      79  75  87 CALM      29.93S
MANASSAS*      NOT AVBL
LEESBURG*      FAIR      81  73  78 CALM      29.93F
WINCHESTER     FAIR      79  72  78 S5        29.94F
FRONT ROYAL*   FAIR      75  72  88 SW5       29.93F
LURAY*         FAIR     N/A N/A N/A CALM      29.96S
$$

VAZ048-049-060>072-079>083-281400-
CENTRAL AND SOUTH CENTRAL VIRGINIA

CITY           SKY/WX    TMP DP  RH WIND       PRES   REMARKS
RICHMOND       PTSUNNY   80  74  81 VRB3      29.92F
CHESTERFIELD*  FAIR      81  64  57 CALM      29.94S
PETERSBURG*    FAIR      82  76  82 CALM      29.93F
HANOVER        FAIR      81  72  74 CALM      29.93F
TAPPAHANNOCK*  FAIR      83  73  73 CALM      29.92F
QUINTON*       FAIR      80  75  84 SE6       29.91F
CHARLOTTSVILLE FAIR      79  73  82 CALM      29.93S
GORDONSVILLE*  FAIR      76  74  93 CALM      29.91F
ORANGE*          N/A     79  77  94 CALM      29.93F
LOUISA*        FAIR      81  75  83 CALM      29.91F
BUMPASS*       FAIR      76  74  91 CALM      29.92S
FARMVILLE*     FAIR      80  79  95 S3        29.91F
CREWE*         NOT AVBL
FORT PICKETT*  FAIR      81  78  90 CALM      29.94S
CHASE CITY*    FAIR      79  77  94 CALM      29.94F
CLARKSVILLE*   FAIR      79  75  89 CALM      29.94S
SOUTH HILL*    FAIR      80  76  86 CALM      30.00S
LAWRENCEVILLE* FAIR      81  76  83 CALM      29.93F
EMPORIA*       FAIR      81  73  78 CALM      29.94S
$$

VAZ088>098-281400-
SOUTHEAST VIRGINIA

CITY           SKY/WX    TMP DP  RH WIND       PRES   REMARKS
NORFOLK        FAIR      87  77  72 CALM      29.91F HX  99
VIRGINIA BEACH PTSUNNY   91  77  63 CALM      29.91S HX 104
NORFOLK NAVAL  FAIR      87  77  72 CALM      29.93S HX  99
WEST POINT*    FAIR      82  75  78 CALM      29.93R
SALUDA*        FAIR      82  77  83 CALM      29.91S
NEWPORT NEWS   FAIR      85  76  74 CALM      29.92S
LANGLEY AFB    MOSUNNY   84  77  80 W2        29.91F
FORT EUSTIS    SUNNY     87  76  69 CALM      29.90S HX  98
WILLIAMSBURG*  FAIR      79  79 100 CALM      29.93S
HR EXEC AP*    FAIR      82  77  83 CALM      29.94F
FRANKLIN*      FAIR      81  76  84 CALM      29.93F
US460-WAKEFLD  FAIR      83  74  74 CALM      29.92F
$$

VAZ020-022-025-037-045-281400-
WEST CENTRAL AND SOUTHWEST VIRGINIA

CITY           SKY/WX    TMP DP  RH WIND       PRES   REMARKS
STAUNTON*      FAIR      74  72  95 SW5       29.99S
WAYNESBORO*    FAIR      73  71  94 CALM      29.99R
HOT SPRINGS VA NOT AVBL
LYNCHBURG      FAIR      76  74  93 SW5       29.98R
DANVILLE       FAIR      77  74  90 CALM      29.95F
SOUTH BOSTON*  FAIR     N/A N/A N/A CALM      29.94S
MARTINSVILLE   FAIR      76  72  86 CALM      30.00S
ROANOKE        FAIR      79  72  79 W5        30.00F
BLACKSBURG     FAIR      74  71  88 W5        30.08R
DUBLIN*        FAIR      77  72  84 CALM      30.06S
MARION*        CLOUDY    75  72  89 W6        30.10S
HILLSVILLE*    FAIR      74  70  87 W5        30.08R
RICHLANDS*     PTSUNNY   71  70  98 CALM      30.08S
WISE*          NOT AVBL
ABINGDON*      CLOUDY    74  73  95 W3        30.07R FOG
$$

MDZ021>025-VAZ099-100-281400-
SOUTHERN MARYLAND AND THE DELMARVA PENINSULA

CITY           SKY/WX    TMP DP  RH WIND       PRES   REMARKS
PATUXENT RIVER MOSUNNY   84  75  74 W5        29.91S
BAY BRIDGE APT CLOUDY    86  79  79 S7        29.91S HX  99
LEONARDTOWN    SUNNY     82  73  74 W3        29.93
DOVER          SUNNY     84  79  85 S3        29.90S HX  97
GEORGETOWN     CLOUDY    85  76  74 S3        29.92S
EASTON         MOSUNNY   86  81  84 SW7       29.95S HX 102
CAMBRIDGE      MOSUNNY   82  79  89 CALM      29.91S
SALISBURY      SUNNY     85  79  82 S5        29.91F HX  98
OCEAN CITY     PTSUNNY   82  78  88 E3        29.92S
WALLOPS ISLAND FAIR      84  79  85 SE7       29.92S HAZE    HX  96
ACCOMACK*      CLOUDY    84  79  84 CALM      29.92S HX  96
$$

NCZ012>017-030>032-281400-
NORTH CENTRAL AND EASTERN NORTH CAROLINA

CITY           SKY/WX    TMP DP  RH WIND       PRES   REMARKS
ROANOKE RAPIDS FAIR      79  73  83 CALM      29.93S
RALEIGH        MOSUNNY   82  74  76 SW3       29.95S
ELIZABETH CITY SUNNY     84  76  76 SW6       29.93S
AHOSKIE*       SUNNY     80  75  85 CALM      29.94R
EDENTON*       MOSUNNY   84  76  76 CALM      29.94S
CURRITUCK*     SUNNY     83  77  80 W3        29.94S
KILL DEVIL HLS MOSUNNY   86  76  73 CALM      29.94R HX  96
MANTEO           N/A     82  77  85 W5        29.95S
CAPE HATTERAS  MOSUNNY   84  80  88 SW6       29.95S HX  97
TARBORO*       FAIR      83  78  84 SW3       29.94F
GOLDSBORO      SUNNY     87  79  76 W8        29.94R HX 100
WASHINGTON     SUNNY     83  77  81 W5        29.94S
GREENVILLE     SUNNY     86  79  79 CALM      29.96S HX  99
NEW BERN       SUNNY     85  77  77 W6        29.96R HX  95
WILMINGTON     SUNNY     87  76  69 W8        29.97R HX  97
$$

VAZ048-281400-
ELSEWHERE

CITY           SKY/WX    TMP DP  RH WIND       PRES   REMARKS
HARRISBURG PA  CLOUDY    79  70  74 CALM      29.92S
BALTIMORE      CLOUDY    84  73  69 VRB3      29.91S
ANNAPOLIS        N/A    N/A N/A N/A MISG      29.90S
ANDREWS AFB    FAIR      85  75  73 VRB2      29.91S
PHILADELPHIA   PTSUNNY   84  73  69 E3        29.93R
GREENSBORO     MOSUNNY   81  72  74 VRB3      29.97R
ROCKY MOUNT    SUNNY     82  78  88 SW5       29.94S
$$

VAZ100-281400-
MARINE

STATION/POSITION TIME  TEMP    WIND        PRES    WAVE   SWELL
                       AIR SEA DIR/SP/G            HT/PER HT/PER
                 (UTC) (F)     (DEG/KT/KT) (MB)    (FT/S) (FT/S)
BRANDYWINE LGT   1212   79     200/  1/  1   N/A
CAPE MAY NJ      1200   81 72   CALM  /  1 1012.5R
LEWES DE         1200   84 74  160/  1/  2 1012.8R
OCEAN-CITY-INLET 1200   75 70  210/  2/  2 1013.5R
WACHAPREAGUE VA  1200   81 85  130/  2/  3 1013.1R
THOMAS POINT MD  1300   82 84  190/  6/  7 1014.0F
GOOSES REEF MD   1300   84 85  240/  2/  2 1013.9F   0
COVE POINT MD    1200   84     260/  4/  6 1013.4R
SOLOMONS ISLAND  1200   86 86  240/  5/  5   N/A
BISHOPS HEAD MD  1200   86 87  210/  5/  5 1013.3R
PINEY POINT MD   1200          270/  4/  4   N/A
POTOMAC MD       1300   83 86  280/  4/  6 1011.7F   1
CAMBRIDGE MD     1200   83 88  190/  4/  4 1012.1R
LEWISETTA VA     1200   81 87  270/  4/  4 1012.5R
RAPPAHANNOCK LGT 1200          250/  2/  2 1013.6R
STINGRAY PT      1200   82 86  230/  4/  6 1013.4R   0
YORK RVR RNG VA  1200   82     280/  4/  5 1012.6R
YORKTOWN VA      1200   80 85  290/  1/  2 1012.6R
JAMESTOWN VA     1300   83 89     CALM       N/A     0
DOMINION TERM VA 1200   82     270/  2/  3 1013.1S
KIPTOPEKE VA     1200      79  170/  2/  2   N/A
CHES BAY BRIDGE  1200   81 81  260/  3/  3 1012.9S
CAPE HENRY VA    1200   82     310/  4/  4   N/A
WILLOUBY STN VA  1200   83      CALM  /  1   N/A
CAPE HENRY BUOY  1212      75                N/A     1/ 8
1ST LANDING BUOY 1300   83 81  250/  4/  4 1012.8F   1
CAPE CHARLES BUO 1226      78                N/A     1/ 8
OFFSHORE WE BUOY 1221      82                N/A     2/ 8
64NM E OF VA BCH 1250   82 81   CALM  /  2 1013.4R   2/ 6   2/ 6
DUCK PIER NC     1200   83 75  260/  6/  8 1013.1R
44100 DUCK FRF   1205      78                N/A     1/ 7
44056 DUCK FRF   1211      77                N/A     1/ 8
OREGON INLET NC  1200   82 84  200/  2/  3 1014.0R
HATTERAS NC      1200   83 83  190/  3/  6 1013.9R
DIAMOND SHLS NC  1250   84 83  220/ 10/ 10 1014.3F   2/ 6   2/ 6
CAPE LOOKOUT NC  1300   85     250/  9/ 11 1014.2R
$$




USA.gov is the U.S. government's official web portal to all federal, state and local government web resources and services.